Regional Weather Roundup
Issued by NWS San Diego, CA

Home | Current Version | Previous Version | Text Only | Print | Product List | Glossary On
Versions: 1 2 3 4 5 6 7 8 9 10 11 12 13 14 15 16 17 18 19 20 21 22 23 24 25 26 27 28 29 30 31 32 33 34 35 36 37 38 39 40 41 42 43 44 45 46 47 48 49 50
000
ASUS46 KSGX 202111
RWRSGX

SAN DIEGO HOURLY WEATHER ROUNDUP
NATIONAL WEATHER SERVICE SAN DIEGO CA
200 PM PDT SUN AUG 20 2017

NOTE: "FAIR" INDICATES FEW OR NO CLOUDS BELOW 12,000 FEET WITH NO
SIGNIFICANT WEATHER AND/OR OBSTRUCTIONS TO VISIBILITY.

CAZ042-043-060-061-PZZ750-775-202200-

GREATER SAN DIEGO AREA

CITY           SKY/WX    TMP DP  RH WIND       PRES   REMARKS
SAN DIEGO AP   MOSUNNY   74  60  61 SW10      29.94F
NATIONAL CITY    N/A     74  64  70 S3        29.95S
IMPERIAL BEACH SUNNY     74  59  59 W13       29.93F
BROWN FIELD    SUNNY     76  60  57 W12       29.92F
MIRAMAR MCAS   SUNNY     79  59  50 W10       29.92S
MONTGOMERY FLD SUNNY     78  59  51 SW9       29.92F
GILLESPIE FLD  SUNNY     81  59  47 VRB7      29.90F

$$

NORTH SAN DIEGO COUNTY

CITY           SKY/WX    TMP DP  RH WIND       PRES   REMARKS
CAMP PENDLETON SUNNY     68 N/A N/A SW9       29.90F
OCEANSIDE AP   SUNNY     76  61  59 W12       29.90F
OCEANSIDE HBR    N/A     71  62  73 NW3       29.94F
VISTA            N/A     77  63  61 W3        29.88F
CARLSBAD       SUNNY     73  61  65 W9        29.91F
DEL MAR          N/A     74  64  71 W2        29.93F
LA JOLLA SCRIP   N/A     70  63  78 SW8       29.91F
FALLBROOK        N/A     82  64  54 SW3       29.90F
ESCONDIDO        N/A     85  64  49 W8        29.90F
POWAY            N/A     83  62  49 CALM      29.90F

$$

EAST SAN DIEGO COUNTY

CITY           SKY/WX    TMP DP  RH WIND       PRES   REMARKS
RAMONA         SUNNY     85  58  39 VRB7G16   29.92F
SANTEE LAKES     N/A     80  63  55 SW14      29.88F
LA MESA          N/A     77  62  59 SW1       29.84F
JAMUL            N/A     81  64  56 CALM      29.89F
DESCANSO N       N/A     82  56  40 W3        29.79F
CAMPO            N/A     87  51  28 SW14      29.92F

$$

ORANGE COUNTY AND THE LOS ANGELES BASIN

CITY           SKY/WX    TMP DP  RH WIND       PRES   REMARKS
JOHN WAYNE AP  MOSUNNY   75  61  61 S13       29.91F
LAKE FOREST FR   N/A     82  60  46 W1        29.78F
HUNTINGTON BCH   N/A     76  66  69 S6        29.93F
LOS ALAMITOS   MOSUNNY   76  62  60 SW13      29.91F
FULLERTON      SUNNY     80  62  54 VRB7      29.89F
LONG BEACH     SUNNY     75  61  61 S9        29.91F
L.A. AP        MOSUNNY   75  61  61 W15       29.92F
L.A. DOWNTOWN  SUNNY     78  60  53 CALM      29.90F

$$

THE INLAND EMPIRE

CITY           SKY/WX    TMP DP  RH WIND       PRES   REMARKS
CORONA         SUNNY     85  61  44 W10       29.88F
CHINO          MOSUNNY   91  59  33 MISG      29.89F
ONTARIO        SUNNY     87  53  31 SW9       29.89F
RIVERSIDE AP   SUNNY     86  57  37 W6        29.88F
MORENO VALLEY    N/A     91  59  34 CALM      28.02F
MARCH ARB      SUNNY     88  55  33 NW9       29.90F
HORSETHIEF CYN   N/A     86  53  32 NE2       29.88F
PERRIS           N/A     87  59  38 NW5       29.89F
HEMET EAST       N/A     85  44  23 W6        29.93F
FRENCH VALLEY  FAIR      86  52  30 S10       29.91F
TEMECULA         N/A     84  59  43 SW7       29.95F

$$

SAN BERNARDINO AND RIVERSIDE COUNTY MOUNTAINS

CITY           SKY/WX    TMP DP  RH WIND       PRES   REMARKS
BIG BEAR AP    SUNNY     73  34  23 W9G20     30.19F
PINE COVE        N/A     73  45  36 W3        29.83F

$$

SOUTHERN DESERT INCLUDING THE COACHELLA VALLEY

CITY           SKY/WX    TMP DP  RH WIND       PRES   REMARKS
PALM SPRINGS   SUNNY    102  37  10 VRB6      29.79F HX  96
THOUSAND PALMS   N/A    102  49  16 SE3       29.75F HX  99
PALM DESERT      N/A    105  53  18 SE3       26.85S HX 102
THERMAL        SUNNY    105  48  14 SE10      29.73F HX 101
BLYTHE         SUNNY    104  44  13 SE13      29.78F HX  99
IMPERIAL AP    SUNNY    103  53  19 MISG      29.74F HX 101
EL CENTRO NAS  SUNNY    103  46  14 E10       29.77F HX  99
YUMA AZ        SUNNY    105  51  16 N8        29.77F HX 102
MEXICALI       SUNNY    100  46  16 NE7       29.77F HX  96

$$

UPPER DESERT

CITY           SKY/WX    TMP DP  RH WIND       PRES   REMARKS
VICTORVILLE AP MOSUNNY   93  30  10 S17       29.93F
HESPERIA         N/A     90  36  15 SW12      29.91F
PALMDALE       SUNNY     94  43  17 SW13      29.91F
LANCASTER      SUNNY     93  42  17 W16       29.90F
EDWARDS AFB    SUNNY     94  37  13 N8        29.86F
DAGGETT        SUNNY     99  43  14 E13G28    29.83F HX  95
29 PALMS N     SUNNY     98  25   7 SE12      29.92F
NEEDLES        SUNNY    107  43  11 S13G18    29.79F HX 102

$$

REGIONAL REPORTS

CITY           SKY/WX    TMP DP  RH WIND       PRES   REMARKS
SANTA BARBARA  PTSUNNY   71  59  65 S8        29.93F
SANDBERG       SUNNY     83  38  20 S15G24    30.08S
LAS VEGAS NV   MOSUNNY  100  43  14 VRB5      29.87F HX  96
PHOENIX AZ     PTSUNNY   97  48  18 S5        29.84F
TIJUANA        SUNNY     77  59  53 SW8       29.94F
ENSENADA NW      N/A     71  32  23 W6        29.90F

$$

OFFSHORE ISLANDS

CITY           SKY/WX    TMP DP  RH WIND       PRES   REMARKS
CATALINA ARPT  PTSUNNY   67  59  75 W9        29.96F
SAN NICOLAS IS CLOUDY   N/A N/A N/A SE7       29.94F

$$

MARINE AND OFFSHORE BUOY REPORTS

STATION/POSITION SKY/WX   TEMP    WIND        PRES    VSBY  SWELL
                          AIR SEA DIR/SP/G                  HT/PER/DIR
                          (F)     (DEG/KT/KT) (MB)    (MI)  (FT/S/D)
TANNER BANKS               64 67  150/  4/  6 1013.6F         5/290/11
S CLEMENTE BASIN           66 70  220/  8/ 10 1013.8F         3/210/14
SAN NICOLAS IS.               64                N/A           3/280/11
SO. S. ROSA ISLA           63 64  130/  4/  6 1013.7F         5/300/10
W. S. BARBARA CH           63 64  180/  8/ 10 1013.5F         5/300/10
M. S. BARBARA CH           66 66  230/  6/  8 1014.4F         2/250/ 8
S. MONICA BASIN               71  220/  8/ 10 1013.5F         3/180/14
S PEDRO CHANNEL               69                N/A           2/170/14
CMP PENDLETON NS              69                N/A           2/220/14
OCEANSIDE OFFSHR              72                N/A           2/200/14
TORREY PINES OTR              74                N/A           2/200/13
SAN DIEGO BAY                 74              1013.7F
POINT LOMA SOUTH              71                N/A           2/190/13

$$





USA.gov is the U.S. government's official web portal to all federal, state and local government web resources and services.